This is the latest recevied weather packets stored in our database for station/object KC3ELT-10. If no packets are shown the sender has not sent any weather packets the latest 10 day(s).
| Time | Temp. | Humidity | Pressure | Rain* | Wind** | Luminosity | Snow |
|---|---|---|---|---|---|---|---|
| 1777368478 | 7.78° C | 69% | 1015.9 hPa | 0 mm | 0.45 m/s, 246° | - | - |
| 1777368178 | 7.78° C | 69% | 1015.9 hPa | 0 mm | 0.89 m/s, 219° | - | - |
| 1777367878 | 7.78° C | 69% | 1015.9 hPa | 0 mm | 0.89 m/s, 210° | - | - |
| 1777367579 | 7.78° C | 69% | 1016 hPa | 0 mm | 0.45 m/s, 227° | - | - |
| 1777367278 | 7.78° C | 69% | 1016 hPa | 0 mm | 0.45 m/s, 209° | - | - |
| 1777366979 | 7.22° C | 69% | 1016 hPa | 0 mm | 1.79 m/s, 229° | - | - |
| 1777366678 | 7.22° C | 69% | 1016.2 hPa | 0 mm | 0.89 m/s, 255° | - | - |
| 1777366379 | 7.22° C | 69% | 1016.2 hPa | 0 mm | 0.89 m/s, 217° | - | - |
| 1777366079 | 7.22° C | 69% | 1016.2 hPa | 0 mm | 1.34 m/s, 217° | - | - |
| 1777365778 | 7.22° C | 69% | 1016.3 hPa | 0 mm | 0.89 m/s, 215° | - | - |
| 1777365478 | 7.22° C | 69% | 1016.3 hPa | 0 mm | 0.89 m/s, 240° | - | - |
| 1777365178 | 7.22° C | 69% | 1016.3 hPa | 0 mm | 0.89 m/s, 230° | - | - |
| 1777364879 | 7.22° C | 69% | 1016.5 hPa | 0 mm | 0.89 m/s, 197° | - | - |
| 1777364578 | 7.22° C | 68% | 1016.5 hPa | 0 mm | 0.45 m/s, 178° | - | - |
| 1777364278 | 7.78° C | 69% | 1016.5 hPa | 0 mm | 0.45 m/s, 214° | - | - |
| 1777363978 | 7.78° C | 68% | 1016.4 hPa | 0 mm | 1.34 m/s, 248° | - | - |
| 1777363679 | 7.78° C | 69% | 1016.4 hPa | 0 mm | 1.34 m/s, 201° | - | - |
| 1777363378 | 7.78° C | 69% | 1016.4 hPa | 0 mm | 1.34 m/s, 232° | - | - |
| 1777363078 | 7.78° C | 68% | 1016.4 hPa | 0 mm | 0.45 m/s, 226° | - | - |
| 1777362778 | 7.78° C | 68% | 1016.4 hPa | 0 mm | 0.89 m/s, 219° | - | - |
| 1777362478 | 7.78° C | 68% | 1016.4 hPa | 0 mm | 0.89 m/s, 215° | - | - |
| 1777362179 | 7.78° C | 68% | 1016.4 hPa | 0 mm | 0.89 m/s, 211° | - | - |
| 1777361878 | 7.78° C | 68% | 1016.4 hPa | 0 mm | 0.45 m/s, 204° | - | - |
| 1777361579 | 7.78° C | 68% | 1016.4 hPa | 0 mm | 1.79 m/s, 176° | - | - |
| 1777361279 | 7.78° C | 68% | 1016.4 hPa | 0 mm | 0.89 m/s, 193° | - | - |
* Rain latest hour (hover to see other rain measurements)
** Current wind speed in m/s (hover to see current wind gust speed)